Tracking 29089 objects as of 13-Jul-2024
HD Live streaming from Space Station
objects crossing your sky now

STARLINK-3859

Track STARLINK-3859 now!
10-day predictions
STARLINK-3859 is classified as:


NORAD ID: 52470
Int'l Code: 2022-049V
Perigee: 546.0 km
Apogee: 547.8 km
Inclination: 53.2 °
Period: 95.4 minutes
Semi major axis: 6917 km
RCS: Unknown
Launch date: May 6, 2022
Source: United States (US)
Launch site: AIR FORCE EASTERN TEST RANGE (AFETR)
Your satellite tracking list
Your tracking list is empty




NASA's NSSDC Master Catalog

Two Line Element Set (TLE):
1 52470U 22049V   24194.87107434  .00000699  00000-0  62014-4 0  9990
2 52470  53.2168 254.2627 0001344 102.1917 257.9226 15.08834995120947
Source of the keplerian elements: AFSPC